Hourly Weather Bridgetown

Today, 20 September, Sunday

Time Temperature Precipitation Wind Pressure Humidity
00:00 +30°C° 0 mm 5 mps 759 mmHg 80%
01:00 +30°C° 0 mm 5 mps 758 mmHg 80%
02:00 +30°C° 0 mm 5 mps 757 mmHg 81%
03:00 +30°C° 0 mm 5 mps 757 mmHg 81%
04:00 +29°C° 0 mm 5 mps 757 mmHg 82%
05:00 +29°C° 0 mm 5 mps 757 mmHg 82%
06:00 +30°C° 0 mm 5 mps 758 mmHg 79%
07:00 +32°C° 0 mm 5 mps 758 mmHg 76%
08:00 +32°C° 0 mm 5 mps 759 mmHg 73%
09:00 +33°C° 0 mm 5 mps 759 mmHg 72%
10:00 +33°C° 0 mm 5 mps 759 mmHg 70%
11:00 +34°C° 0 mm 5 mps 759 mmHg 68%
12:00 +34°C° 0 mm 5 mps 759 mmHg 68%
13:00 +34°C° 0 mm 5 mps 758 mmHg 67%
14:00 +34°C° 0 mm 4 mps 757 mmHg 66%
15:00 +33°C° 0.1 mm 4 mps 758 mmHg 70%
16:00 +33°C° 0.1 mm 4 mps 758 mmHg 73%
17:00 +32°C° 0.1 mm 4 mps 758 mmHg 76%
18:00 +32°C° 0.4 mm 4 mps 758 mmHg 77%
19:00 +32°C° 0.4 mm 5 mps 758 mmHg 78%
20:00 +30°C° 0.4 mm 5 mps 759 mmHg 79%
21:00 +30°C° 0.3 mm 5 mps 759 mmHg 79%
22:00 +30°C° 0.3 mm 5 mps 759 mmHg 79%
23:00 +30°C° 0.3 mm 5 mps 759 mmHg 79%

Tomorrow, 21 September, Monday

Time Temperature Precipitation Wind Pressure Humidity
00:00 +30°C° 0 mm 5 mps 759 mmHg 80%
01:00 +30°C° 0 mm 4 mps 758 mmHg 81%
02:00 +30°C° 0 mm 4 mps 758 mmHg 82%
03:00 +30°C° 0 mm 4 mps 758 mmHg 82%
04:00 +30°C° 0 mm 4 mps 758 mmHg 82%
05:00 +30°C° 0 mm 4 mps 758 mmHg 82%
06:00 +30°C° 0 mm 4 mps 758 mmHg 79%
07:00 +30°C° 0 mm 4 mps 759 mmHg 77%
08:00 +32°C° 0 mm 4 mps 759 mmHg 74%
09:00 +32°C° 0 mm 5 mps 759 mmHg 71%
10:00 +33°C° 0 mm 5 mps 759 mmHg 69%
11:00 +33°C° 0 mm 5 mps 759 mmHg 66%
12:00 +33°C° 0 mm 5 mps 759 mmHg 66%
13:00 +33°C° 0 mm 4 mps 758 mmHg 65%
14:00 +33°C° 0 mm 4 mps 758 mmHg 65%
15:00 +33°C° 0 mm 4 mps 758 mmHg 67%
16:00 +33°C° 0 mm 4 mps 758 mmHg 69%
17:00 +32°C° 0 mm 4 mps 757 mmHg 71%
18:00 +32°C° 0 mm 4 mps 758 mmHg 72%
19:00 +32°C° 0 mm 4 mps 758 mmHg 73%
20:00 +32°C° 0 mm 4 mps 758 mmHg 74%
21:00 +30°C° 0 mm 4 mps 758 mmHg 75%
22:00 +30°C° 0 mm 4 mps 758 mmHg 76%
23:00 +30°C° 0 mm 4 mps 759 mmHg 77%

Day after tomorrow, 22 September, Tuesday

Time Temperature Precipitation Wind Pressure Humidity
00:00 +30°C° 0 mm 4 mps 758 mmHg 79%
01:00 +30°C° 0 mm 4 mps 758 mmHg 80%
02:00 +30°C° 0 mm 5 mps 757 mmHg 81%
03:00 +30°C° 0 mm 5 mps 757 mmHg 82%
04:00 +30°C° 0 mm 5 mps 757 mmHg 83%
05:00 +30°C° 0 mm 5 mps 757 mmHg 84%
06:00 +30°C° 0.1 mm 5 mps 758 mmHg 82%
07:00 +30°C° 0.1 mm 5 mps 758 mmHg 80%
08:00 +32°C° 0.1 mm 5 mps 759 mmHg 78%
09:00 +32°C° 0 mm 5 mps 759 mmHg 74%
10:00 +33°C° 0 mm 5 mps 759 mmHg 70%
11:00 +33°C° 0 mm 4 mps 759 mmHg 67%
12:00 +33°C° 0.1 mm 4 mps 759 mmHg 68%
13:00 +33°C° 0.1 mm 4 mps 758 mmHg 70%
14:00 +33°C° 0.1 mm 4 mps 758 mmHg 71%
15:00 +33°C° 0.2 mm 4 mps 758 mmHg 72%
16:00 +32°C° 0.2 mm 4 mps 757 mmHg 73%
17:00 +32°C° 0.2 mm 4 mps 757 mmHg 75%
18:00 +32°C° 0.1 mm 4 mps 758 mmHg 77%
19:00 +30°C° 0.1 mm 4 mps 758 mmHg 79%
20:00 +30°C° 0.1 mm 4 mps 758 mmHg 82%
21:00 +30°C° 0.2 mm 4 mps 758 mmHg 82%
22:00 +30°C° 0.2 mm 4 mps 758 mmHg 83%
23:00 +30°C° 0.2 mm 5 mps 758 mmHg 83%

23 September, Wednesday

Time Temperature Precipitation Wind Pressure Humidity
00:00 +30°C° 0.2 mm 4 mps 758 mmHg 82%
01:00 +30°C° 0.2 mm 4 mps 758 mmHg 82%
02:00 +30°C° 0.2 mm 4 mps 757 mmHg 82%
03:00 +30°C° 0.2 mm 5 mps 758 mmHg 82%
04:00 +30°C° 0.2 mm 5 mps 758 mmHg 82%
05:00 +30°C° 0.2 mm 5 mps 758 mmHg 82%
06:00 +30°C° 0 mm 5 mps 759 mmHg 79%
07:00 +30°C° 0 mm 4 mps 759 mmHg 77%
08:00 +32°C° 0 mm 4 mps 760 mmHg 75%
09:00 +32°C° 0.1 mm 4 mps 760 mmHg 72%
10:00 +33°C° 0.1 mm 4 mps 760 mmHg 69%
11:00 +33°C° 0.1 mm 4 mps 760 mmHg 65%
12:00 +33°C° 0.2 mm 4 mps 760 mmHg 65%
13:00 +33°C° 0.2 mm 4 mps 759 mmHg 65%
14:00 +33°C° 0.2 mm 4 mps 758 mmHg 64%
15:00 +33°C° 0.1 mm 4 mps 758 mmHg 67%
16:00 +33°C° 0.1 mm 4 mps 758 mmHg 70%
17:00 +32°C° 0.1 mm 5 mps 758 mmHg 73%
18:00 +32°C° 0 mm 5 mps 758 mmHg 74%
19:00 +32°C° 0 mm 5 mps 759 mmHg 75%
20:00 +30°C° 0 mm 5 mps 759 mmHg 76%
21:00 +30°C° 0 mm 5 mps 759 mmHg 77%
22:00 +30°C° 0 mm 4 mps 760 mmHg 78%
23:00 +30°C° 0 mm 4 mps 760 mmHg 79%

24 September, Thursday

Time Temperature Precipitation Wind Pressure Humidity
00:00 +30°C° 0 mm 4 mps 759 mmHg 79%
01:00 +30°C° 0 mm 4 mps 759 mmHg 80%
02:00 +30°C° 0 mm 4 mps 759 mmHg 80%
03:00 +30°C° 0 mm 4 mps 759 mmHg 81%
04:00 +29°C° 0 mm 4 mps 759 mmHg 81%
05:00 +29°C° 0 mm 3 mps 759 mmHg 81%
06:00 +30°C° 0.1 mm 4 mps 759 mmHg 79%
07:00 +30°C° 0.1 mm 4 mps 760 mmHg 77%
08:00 +32°C° 0.1 mm 4 mps 760 mmHg 74%
09:00 +32°C° 0.3 mm 4 mps 760 mmHg 73%
10:00 +33°C° 0.3 mm 4 mps 761 mmHg 71%
11:00 +33°C° 0.3 mm 4 mps 761 mmHg 69%
12:00 +33°C° 0.3 mm 5 mps 760 mmHg 68%
13:00 +33°C° 0.3 mm 5 mps 760 mmHg 68%
14:00 +33°C° 0.3 mm 5 mps 759 mmHg 67%
15:00 +33°C° 0 mm 5 mps 759 mmHg 68%
16:00 +33°C° 0 mm 4 mps 759 mmHg 68%
17:00 +32°C° 0 mm 4 mps 759 mmHg 69%
18:00 +32°C° 0 mm 4 mps 759 mmHg 72%
19:00 +32°C° 0 mm 4 mps 760 mmHg 75%
20:00 +30°C° 0 mm 4 mps 760 mmHg 78%
21:00 +30°C° 0 mm 4 mps 760 mmHg 78%
22:00 +30°C° 0 mm 4 mps 760 mmHg 79%
23:00 +30°C° 0 mm 4 mps 761 mmHg 79%

25 September, Friday

Time Temperature Precipitation Wind Pressure Humidity
00:00 +30°C° 0 mm 5 mps 760 mmHg 81%
01:00 +30°C° 0 mm 5 mps 760 mmHg 82%
02:00 +29°C° 0 mm 5 mps 759 mmHg 84%
03:00 +29°C° 0 mm 5 mps 759 mmHg 84%
04:00 +29°C° 0 mm 5 mps 759 mmHg 84%
05:00 +29°C° 0 mm 5 mps 759 mmHg 84%
06:00 +30°C° 0 mm 5 mps 760 mmHg 81%
07:00 +30°C° 0 mm 5 mps 760 mmHg 78%
08:00 +30°C° 0 mm 5 mps 761 mmHg 76%
09:00 +32°C° 0 mm 5 mps 761 mmHg 74%
10:00 +32°C° 0 mm 5 mps 761 mmHg 73%
11:00 +33°C° 0 mm 5 mps 761 mmHg 71%
12:00 +33°C° 0.2 mm 5 mps 760 mmHg 71%
13:00 +33°C° 0.2 mm 5 mps 760 mmHg 72%
14:00 +33°C° 0.2 mm 6 mps 759 mmHg 72%
15:00 +32°C° 0 mm 6 mps 759 mmHg 73%
16:00 +32°C° 0 mm 6 mps 759 mmHg 75%
17:00 +32°C° 0 mm 6 mps 758 mmHg 76%
18:00 +30°C° 0 mm 6 mps 759 mmHg 77%
19:00 +30°C° 0 mm 6 mps 759 mmHg 78%
20:00 +30°C° 0 mm 6 mps 759 mmHg 78%
21:00 +30°C° 0 mm 6 mps 759 mmHg 78%
22:00 +30°C° 0 mm 6 mps 759 mmHg 77%
23:00 +30°C° 0 mm 7 mps 759 mmHg 76%
Show more